Flag for France Weather past 2 weeks in Villeurbanne, France

Now
77 °F

Passing clouds.


Feels Like: 79 °F
Forecast: 58 / 75 °F
Wind: 10 mph from North

Location: Lyon / Bron

Current Time: Aug 30, 2014 at 3:24:27 PM

Latest Report: Aug 30, 2014 at 3:00 PM


Visibility: N/A

Pressure: 30.09 "Hg

Humidity: 51%

Dew point: 57 °F

Location of VilleurbanneLocation

Historic Weather in Villeurbanne — Graph

°F

Villeurbanne temperature yesterday

Maximum temperature yesterday: 77 °F (at 2:00 PM)
Minimum temperature yesterday: 64 °F (at 5:30 AM)
Average temperature yesterday: 71 °F

Past Weeks' High & Low Weather Summary

 TemperatureHumidityPressure
High82 °F (Aug 18, 5:30 PM)94% (Aug 16, 6:30 AM)30.21 "Hg (Aug 16, 6:30 AM)
Low52 °F (Aug 16, 6:30 AM)32% (Aug 22, 4:30 PM)29.83 "Hg (Aug 26, 4:30 AM)
Average66 °F62%30.03 "Hg
* Reported Aug 15 2:30 PM — Aug 30 2:00 PM, Villeurbanne, Weather by CustomWeather, © 2014

Note: Actual official high and low records may vary slightly from our data, if they occured in-between our weather recording intervals... More about our weather records

Advertising

Villeurbanne weather history for previous 24 hours

 ConditionsComfort  
Time TempWeatherWind HumidityBarometerVisibility
2:00 PM
Aug 30
77 °FPassing clouds.8 mph47%30.09 "HgN/A
1:30 PM75 °FPassing clouds.10 mph50%30.12 "HgN/A
1:00 PM75 °FPassing clouds.9 mph50%30.12 "HgN/A
12:30 PM73 °FPassing clouds.9 mph57%30.12 "HgN/A
12:00 PM73 °FPassing clouds.9 mph57%30.12 "HgN/A
11:30 AM72 °FClear.7 mph65%30.12 "HgN/A
11:00 AM72 °FClear.9 mph65%30.12 "HgN/A
10:30 AM70 °FClear.8 mph69%30.12 "HgN/A
10:00 AM68 °FClear.6 mph73%30.12 "HgN/A
9:30 AM66 °FClear.6 mph78%30.12 "HgN/A
9:00 AM64 °FClear.6 mph78%30.12 "HgN/A
8:30 AM63 °FClear.6 mph83%30.12 "HgN/A
8:00 AM61 °FClear.5 mph88%30.12 "HgN/A
7:30 AM59 °FClear.No wind94%30.12 "HgN/A
7:00 AM59 °FClear.No wind94%30.12 "HgN/A
6:30 AM61 °FClear.No wind88%30.12 "HgN/A
6:00 AM61 °FClear.3 mph88%30.09 "HgN/A
5:30 AM61 °FClear.1 mph88%30.09 "HgN/A
5:00 AM61 °FClear.No wind94%30.12 "HgN/A
4:30 AM61 °FClear.No wind88%30.12 "HgN/A
4:00 AM61 °FClear.3 mph94%30.12 "HgN/A
3:30 AM63 °FClear.3 mph88%30.12 "HgN/A
3:00 AM63 °FClear.3 mph88%30.12 "HgN/A
2:30 AM63 °FClear.2 mph88%30.12 "HgN/A
2:00 AM63 °FClear.No wind88%30.12 "HgN/A
1:30 AM63 °FClear.1 mph94%30.12 "HgN/A
1:00 AM64 °FClear.No wind88%30.12 "HgN/A
12:30 AM64 °FClear.2 mph88%30.12 "HgN/A
12:00 AM64 °FClear.2 mph88%30.12 "HgN/A
11:30 PM
Aug 29
66 °FClear.2 mph88%30.12 "HgN/A
11:00 PM66 °FClear.3 mph83%30.12 "HgN/A
9:00 PM68 °FMostly cloudy.9 mph83%30.09 "HgN/A
8:30 PM68 °FHeavy rain. Fog.9 mph88%30.09 "Hg2 mi
8:00 PM73 °FRain. Broken clouds.8 mph69%30.07 "HgN/A
7:30 PM73 °FBroken clouds.7 mph69%30.07 "HgN/A
7:00 PM75 °FMostly cloudy.8 mph61%30.07 "HgN/A
6:30 PM75 °FMore clouds than sun.7 mph61%30.07 "HgN/A
6:00 PM75 °FMostly cloudy.8 mph61%30.07 "HgN/A
5:30 PM75 °FPartly sunny.9 mph65%30.07 "HgN/A
5:00 PM75 °FBroken clouds.8 mph65%30.07 "HgN/A
4:30 PM75 °FMore clouds than sun.9 mph65%30.07 "HgN/A
4:00 PM75 °FBroken clouds.12 mph65%30.07 "HgN/A
3:30 PM77 °FMostly cloudy.5 mph61%30.07 "HgN/A
3:00 PM77 °FPartly sunny.6 mph61%30.07 "HgN/A
Weather by CustomWeather, © 2014

See weather overviewHow to use our weather pages